Time,TemperatureF,DewpointF,PressureIn,WindDirection,WindDirectionDegrees,WindSpeedMPH,WindSpeedGustMPH,Humidity,HourlyPrecipIn,Conditions,Clouds,dailyrainin,SoftwareType,DateUTC
2013-02-19 00:03:00,46.4,40.0,29.97,West,269,3.0,4.0,78,0.00,,,0.00,WUHU216DAVISVP2,2013-02-19 08:03:00,
2013-02-19 00:08:00,46.5,40.1,29.96,WNW,286,0.0,4.0,78,0.00,,,0.00,WUHU216DAVISVP2,2013-02-19 08:08:00,
2013-02-19 00:13:00,46.7,40.2,29.96,West,275,2.0,6.0,78,0.00,,,0.00,WUHU216DAVISVP2,2013-02-19 08:13:00,
2013-02-19 00:18:00,46.8,40.3,29.96,NW,307,1.0,6.0,78,0.00,,,0.00,WUHU216DAVISVP2,2013-02-19 08:18:00,
2013-02-19 00:23:00,46.7,40.2,29.96,WNW,292,2.0,6.0,78,0.00,,,0.00,WUHU216DAVISVP2,2013-02-19 08:23:00,
2013-02-19 00:28:00,46.7,40.2,29.96,WNW,302,2.0,4.0,78,0.00,,,0.00,WUHU216DAVISVP2,2013-02-19 08:28:00,
2013-02-19 00:33:00,46.7,40.2,29.96,West,278,3.0,6.0,78,0.00,,,0.00,WUHU216DAVISVP2,2013-02-19 08:33:00,
2013-02-19 00:38:00,46.8,40.7,29.95,WNW,298,0.0,7.0,79,0.00,,,0.00,WUHU216DAVISVP2,2013-02-19 08:38:00,
2013-02-19 00:43:00,46.7,40.6,29.95,NW,310,1.0,7.0,79,0.00,,,0.00,WUHU216DAVISVP2,2013-02-19 08:43:00,
2013-02-19 00:48:00,46.6,40.5,29.95,North,360,2.0,5.0,79,0.00,,,0.00,WUHU216DAVISVP2,2013-02-19 08:48:00,
2013-02-19 00:53:00,46.5,40.4,29.95,NNW,336,0.0,5.0,79,0.00,,,0.00,WUHU216DAVISVP2,2013-02-19 08:53:00,
2013-02-19 00:58:00,46.5,40.4,29.95,NNW,345,0.0,4.0,79,0.00,,,0.00,WUHU216DAVISVP2,2013-02-19 08:58:00,
2013-02-19 01:03:00,46.5,40.4,29.95,NW,313,1.0,4.0,79,0.00,,,0.00,WUHU216DAVISVP2,2013-02-19 09:03:00,
2013-02-19 01:08:00,46.5,40.4,29.95,NW,315,3.0,5.0,79,0.00,,,0.00,WUHU216DAVISVP2,2013-02-19 09:08:00,
2013-02-19 01:13:00,46.6,40.5,29.95,NW,323,1.0,5.0,79,0.00,,,0.00,WUHU216DAVISVP2,2013-02-19 09:13:00,
2013-02-19 01:18:00,46.7,40.6,29.95,NW,323,1.0,5.0,79,0.00,,,0.00,WUHU216DAVISVP2,2013-02-19 09:18:00,
2013-02-19 01:23:00,46.8,40.7,29.95,NNW,331,3.0,6.0,79,0.00,,,0.00,WUHU216DAVISVP2,2013-02-19 09:23:00,
2013-02-19 01:28:00,46.9,40.8,29.94,NNW,334,1.0,6.0,79,0.00,,,0.00,WUHU216DAVISVP2,2013-02-19 09:28:00,
2013-02-19 01:33:00,47.0,40.9,29.95,NNW,334,1.0,4.0,79,0.00,,,0.00,WUHU216DAVISVP2,2013-02-19 09:33:00,
2013-02-19 01:38:00,47.0,40.5,29.94,NNW,334,2.0,3.0,78,0.00,,,0.00,WUHU216DAVISVP2,2013-02-19 09:38:00,
2013-02-19 01:43:00,47.0,40.5,29.95,NNW,341,0.0,3.0,78,0.00,,,0.00,WUHU216DAVISVP2,2013-02-19 09:43:00,
2013-02-19 01:48:00,47.0,40.9,29.95,NNW,341,0.0,4.0,79,0.00,,,0.00,WUHU216DAVISVP2,2013-02-19 09:48:00,
2013-02-19 01:53:00,46.9,40.8,29.95,NNW,342,4.0,4.0,79,0.00,,,0.00,WUHU216DAVISVP2,2013-02-19 09:53:00,
2013-02-19 01:58:00,47.0,40.5,29.95,NNW,341,3.0,4.0,78,0.00,,,0.00,WUHU216DAVISVP2,2013-02-19 09:58:00,
2013-02-19 02:03:00,47.0,40.5,29.95,NNW,333,4.0,5.0,78,0.00,,,0.00,WUHU216DAVISVP2,2013-02-19 10:03:00,
2013-02-19 02:08:00,47.0,40.5,29.95,NNW,336,3.0,6.0,78,0.00,,,0.00,WUHU216DAVISVP2,2013-02-19 10:08:00,
2013-02-19 02:13:00,47.0,40.5,29.95,NNW,329,2.0,6.0,78,0.00,,,0.00,WUHU216DAVISVP2,2013-02-19 10:13:00,
2013-02-19 02:18:00,47.0,40.5,29.95,NNW,331,5.0,7.0,78,0.00,,,0.00,WUHU216DAVISVP2,2013-02-19 10:18:00,
2013-02-19 02:23:00,47.0,40.9,29.95,NNW,331,0.0,7.0,79,0.00,,,0.00,WUHU216DAVISVP2,2013-02-19 10:23:00,
2013-02-19 02:28:00,47.0,40.9,29.95,NNW,346,4.0,5.0,79,0.00,,,0.00,WUHU216DAVISVP2,2013-02-19 10:28:00,
2013-02-19 02:33:00,46.9,40.8,29.95,North,350,2.0,6.0,79,0.00,,,0.00,WUHU216DAVISVP2,2013-02-19 10:33:00,
2013-02-19 02:38:00,47.0,40.5,29.95,North,350,4.0,6.0,78,0.00,,,0.00,WUHU216DAVISVP2,2013-02-19 10:38:00,
2013-02-19 02:43:00,47.2,41.4,29.95,NNW,342,0.0,6.0,80,0.00,,,0.00,WUHU216DAVISVP2,2013-02-19 10:43:00,
2013-02-19 02:48:00,47.2,40.7,29.95,NNW,335,4.0,6.0,78,0.00,,,0.00,WUHU216DAVISVP2,2013-02-19 10:48:00,
2013-02-19 02:53:00,47.2,40.4,29.95,NNW,340,4.0,8.0,77,0.00,,,0.00,WUHU216DAVISVP2,2013-02-19 10:53:00,
2013-02-19 02:58:00,47.2,40.1,29.95,NNW,340,4.0,9.0,76,0.00,,,0.00,WUHU216DAVISVP2,2013-02-19 10:58:00,
2013-02-19 03:03:00,47.3,40.2,29.95,NW,321,5.0,9.0,76,0.00,,,0.00,WUHU216DAVISVP2,2013-02-19 11:03:00,
2013-02-19 03:08:00,47.2,40.1,29.95,NNW,331,4.0,8.0,76,0.00,,,0.00,WUHU216DAVISVP2,2013-02-19 11:08:00,
2013-02-19 03:14:00,47.2,40.1,29.95,NW,321,1.0,7.0,76,0.00,,,0.00,WUHU216DAVISVP2,2013-02-19 11:14:00,
2013-02-19 03:19:00,47.1,40.3,29.95,North,351,0.0,6.0,77,0.00,,,0.00,WUHU216DAVISVP2,2013-02-19 11:19:00,
2013-02-19 03:24:00,47.1,40.3,29.95,NW,322,1.0,6.0,77,0.00,,,0.00,WUHU216DAVISVP2,2013-02-19 11:24:00,
2013-02-19 03:29:00,47.1,40.3,29.95,NNW,345,4.0,6.0,77,0.00,,,0.00,WUHU216DAVISVP2,2013-02-19 11:29:00,
2013-02-19 03:34:00,47.1,40.3,29.95,NNW,344,0.0,7.0,77,0.00,,,0.00,WUHU216DAVISVP2,2013-02-19 11:34:00,
2013-02-19 03:39:00,47.1,40.3,29.95,North,355,3.0,7.0,77,0.00,,,0.00,WUHU216DAVISVP2,2013-02-19 11:39:00,
2013-02-19 03:44:00,47.1,40.0,29.95,North,355,0.0,6.0,76,0.00,,,0.00,WUHU216DAVISVP2,2013-02-19 11:44:00,
2013-02-19 03:49:00,47.2,40.1,29.95,NNW,331,2.0,7.0,76,0.00,,,0.00,WUHU216DAVISVP2,2013-02-19 11:49:00,
2013-02-19 03:54:00,47.3,39.8,29.94,NNW,327,5.0,7.0,75,0.00,,,0.00,WUHU216DAVISVP2,2013-02-19 11:54:00,
2013-02-19 03:59:00,47.3,39.8,29.94,North,355,5.0,9.0,75,0.00,,,0.00,WUHU216DAVISVP2,2013-02-19 11:59:00,
2013-02-19 04:04:00,47.4,39.9,29.94,North,360,4.0,9.0,75,0.00,,,0.00,WUHU216DAVISVP2,2013-02-19 12:04:00,
2013-02-19 04:09:00,47.4,39.6,29.94,NNW,333,3.0,9.0,74,0.00,,,0.00,WUHU216DAVISVP2,2013-02-19 12:09:00,
2013-02-19 04:14:00,47.4,39.9,29.94,North,355,1.0,9.0,75,0.00,,,0.00,WUHU216DAVISVP2,2013-02-19 12:14:00,
2013-02-19 04:19:00,47.4,39.9,29.95,North,355,0.0,6.0,75,0.00,,,0.00,WUHU216DAVISVP2,2013-02-19 12:19:00,
2013-02-19 04:24:00,47.4,39.9,29.94,NNE,12,3.0,7.0,75,0.00,,,0.00,WUHU216DAVISVP2,2013-02-19 12:24:00,
2013-02-19 04:29:00,47.5,39.7,29.94,North,349,1.0,7.0,74,0.00,,,0.00,WUHU216DAVISVP2,2013-02-19 12:29:00,
2013-02-19 04:34:00,47.4,39.9,29.94,North,355,2.0,5.0,75,0.00,,,0.00,WUHU216DAVISVP2,2013-02-19 12:34:00,
2013-02-19 04:39:00,47.4,39.9,29.94,North,351,2.0,5.0,75,0.00,,,0.00,WUHU216DAVISVP2,2013-02-19 12:39:00,
2013-02-19 04:44:00,47.4,39.9,29.94,North,351,2.0,4.0,75,0.00,,,0.00,WUHU216DAVISVP2,2013-02-19 12:44:00,
2013-02-19 04:49:00,47.3,39.8,29.94,North,349,2.0,4.0,75,0.00,,,0.00,WUHU216DAVISVP2,2013-02-19 12:49:00,
2013-02-19 04:54:00,47.3,39.8,29.94,North,349,1.0,4.0,75,0.00,,,0.00,WUHU216DAVISVP2,2013-02-19 12:54:00,
2013-02-19 04:59:00,47.3,39.8,29.94,North,349,2.0,3.0,75,0.00,,,0.00,WUHU216DAVISVP2,2013-02-19 12:59:00,
2013-02-19 05:04:00,47.3,39.8,29.94,North,349,0.0,3.0,75,0.00,,,0.00,WUHU216DAVISVP2,2013-02-19 13:04:00,
2013-02-19 05:09:00,47.3,39.8,29.94,North,349,0.0,3.0,75,0.00,,,0.00,WUHU216DAVISVP2,2013-02-19 13:09:00,
2013-02-19 05:14:00,47.3,39.8,29.94,North,349,2.0,3.0,75,0.00,,,0.00,WUHU216DAVISVP2,2013-02-19 13:14:00,
2013-02-19 05:19:00,47.3,39.8,29.94,North,349,2.0,3.0,75,0.00,,,0.00,WUHU216DAVISVP2,2013-02-19 13:19:00,
2013-02-19 05:24:00,47.3,39.8,29.94,North,349,1.0,3.0,75,0.00,,,0.00,WUHU216DAVISVP2,2013-02-19 13:24:00,
2013-02-19 05:29:00,47.3,39.8,29.94,North,349,2.0,4.0,75,0.00,,,0.00,WUHU216DAVISVP2,2013-02-19 13:29:00,
2013-02-19 05:35:00,47.3,39.8,29.94,North,349,1.0,4.0,75,0.00,,,0.00,WUHU216DAVISVP2,2013-02-19 13:35:00,
2013-02-19 05:40:00,47.2,39.7,29.94,North,349,1.0,4.0,75,0.00,,,0.00,WUHU216DAVISVP2,2013-02-19 13:40:00,
2013-02-19 05:45:00,47.3,39.8,29.94,North,349,2.0,3.0,75,0.00,,,0.00,WUHU216DAVISVP2,2013-02-19 13:45:00,
2013-02-19 05:50:00,47.3,39.8,29.94,NW,315,1.0,3.0,75,0.00,,,0.00,WUHU216DAVISVP2,2013-02-19 13:50:00,
2013-02-19 05:55:00,47.2,39.7,29.95,NW,314,0.0,4.0,75,0.00,,,0.00,WUHU216DAVISVP2,2013-02-19 13:55:00,
2013-02-19 06:00:00,47.3,39.8,29.94,NW,314,1.0,4.0,75,0.00,,,0.00,WUHU216DAVISVP2,2013-02-19 14:00:00,
2013-02-19 06:05:00,47.2,39.7,29.94,NW,324,2.0,5.0,75,0.00,,,0.00,WUHU216DAVISVP2,2013-02-19 14:05:00,
2013-02-19 06:10:00,47.2,39.7,29.94,NW,324,2.0,5.0,75,0.00,,,0.00,WUHU216DAVISVP2,2013-02-19 14:10:00,
2013-02-19 06:15:00,47.2,39.7,29.94,NW,324,2.0,4.0,75,0.00,,,0.00,WUHU216DAVISVP2,2013-02-19 14:15:00,
2013-02-19 06:20:00,47.2,39.7,29.94,NW,324,1.0,3.0,75,0.00,,,0.00,WUHU216DAVISVP2,2013-02-19 14:20:00,
2013-02-19 06:25:00,47.1,40.0,29.94,NW,324,0.0,3.0,76,0.00,,,0.00,WUHU216DAVISVP2,2013-02-19 14:25:00,
2013-02-19 06:30:00,47.1,40.0,29.94,NW,324,2.0,3.0,76,0.00,,,0.00,WUHU216DAVISVP2,2013-02-19 14:30:00,
2013-02-19 06:35:00,47.1,40.0,29.94,NW,324,0.0,3.0,76,0.00,,,0.00,WUHU216DAVISVP2,2013-02-19 14:35:00,
2013-02-19 06:40:00,47.1,40.0,29.94,NW,324,0.0,2.0,76,0.00,,,0.00,WUHU216DAVISVP2,2013-02-19 14:40:00,
2013-02-19 06:45:00,47.1,40.0,29.94,NW,324,0.0,2.0,76,0.00,,,0.00,WUHU216DAVISVP2,2013-02-19 14:45:00,
2013-02-19 06:51:00,47.1,40.0,29.94,NW,324,0.0,3.0,76,0.00,,,0.00,WUHU216DAVISVP2,2013-02-19 14:51:00,
2013-02-19 06:56:00,47.0,39.9,29.94,NW,323,0.0,3.0,76,0.00,,,0.00,WUHU216DAVISVP2,2013-02-19 14:56:00,
2013-02-19 07:01:00,47.0,40.2,29.94,NW,323,0.0,3.0,77,0.00,,,0.00,WUHU216DAVISVP2,2013-02-19 15:01:00,
2013-02-19 07:06:00,47.0,40.2,29.94,NW,323,0.0,3.0,77,0.00,,,0.00,WUHU216DAVISVP2,2013-02-19 15:06:00,
2013-02-19 07:11:00,47.0,39.9,29.94,North,355,3.0,5.0,76,0.00,,,0.00,WUHU216DAVISVP2,2013-02-19 15:11:00,
2013-02-19 07:16:00,47.1,40.0,29.94,NNW,331,3.0,5.0,76,0.00,,,0.00,WUHU216DAVISVP2,2013-02-19 15:16:00,
2013-02-19 07:21:00,47.2,40.1,29.94,NNW,340,2.0,5.0,76,0.00,,,0.00,WUHU216DAVISVP2,2013-02-19 15:21:00,
2013-02-19 07:26:00,47.2,39.7,29.94,NNW,339,0.0,6.0,75,0.00,,,0.00,WUHU216DAVISVP2,2013-02-19 15:26:00,
2013-02-19 07:31:00,47.3,39.8,29.94,North,355,0.0,6.0,75,0.00,,,0.00,WUHU216DAVISVP2,2013-02-19 15:31:00,
2013-02-19 07:36:00,47.3,40.2,29.94,North,355,0.0,4.0,76,0.00,,,0.00,WUHU216DAVISVP2,2013-02-19 15:36:00,
2013-02-19 07:41:00,47.3,39.8,29.94,NNW,347,2.0,4.0,75,0.00,,,0.00,WUHU216DAVISVP2,2013-02-19 15:41:00,
2013-02-19 07:46:00,47.3,39.8,29.94,NW,320,0.0,4.0,75,0.00,,,0.00,WUHU216DAVISVP2,2013-02-19 15:46:00,
2013-02-19 07:51:00,47.3,39.8,29.95,NW,320,3.0,4.0,75,0.00,,,0.00,WUHU216DAVISVP2,2013-02-19 15:51:00,
2013-02-19 07:56:00,47.4,39.9,29.94,NNW,330,3.0,4.0,75,0.00,,,0.00,WUHU216DAVISVP2,2013-02-19 15:56:00,
2013-02-19 08:01:00,47.6,39.8,29.94,NNW,340,3.0,5.0,74,0.00,,,0.00,WUHU216DAVISVP2,2013-02-19 16:01:00,
2013-02-19 08:06:00,47.9,40.1,29.94,NNW,345,0.0,5.0,74,0.00,,,0.00,WUHU216DAVISVP2,2013-02-19 16:06:00,
2013-02-19 08:11:00,48.0,39.8,29.94,NNW,345,4.0,4.0,73,0.00,,,0.00,WUHU216DAVISVP2,2013-02-19 16:11:00,
2013-02-19 08:16:00,48.1,39.6,29.94,North,349,3.0,8.0,72,0.00,,,0.00,WUHU216DAVISVP2,2013-02-19 16:16:00,
2013-02-19 08:21:00,48.5,40.0,29.94,NW,312,2.0,8.0,72,0.00,,,0.00,WUHU216DAVISVP2,2013-02-19 16:21:00,
2013-02-19 08:26:00,48.9,40.0,29.94,North,360,4.0,7.0,71,0.00,,,0.00,WUHU216DAVISVP2,2013-02-19 16:26:00,
2013-02-19 08:31:00,49.1,39.8,29.94,NNE,13,4.0,7.0,70,0.00,,,0.00,WUHU216DAVISVP2,2013-02-19 16:31:00,
2013-02-19 08:36:00,49.6,40.0,29.94,North,355,8.0,8.0,69,0.00,,,0.00,WUHU216DAVISVP2,2013-02-19 16:36:00,
2013-02-19 08:41:00,49.6,39.6,29.94,NNW,327,4.0,8.0,68,0.00,,,0.00,WUHU216DAVISVP2,2013-02-19 16:41:00,
2013-02-19 08:46:00,49.5,39.5,29.94,North,360,3.0,7.0,68,0.00,,,0.00,WUHU216DAVISVP2,2013-02-19 16:46:00,
2013-02-19 08:51:00,49.6,39.6,29.94,NNW,336,3.0,6.0,68,0.00,,,0.00,WUHU216DAVISVP2,2013-02-19 16:51:00,
2013-02-19 08:56:00,50.3,39.9,29.94,North,5,1.0,8.0,67,0.00,,,0.00,WUHU216DAVISVP2,2013-02-19 16:56:00,
2013-02-19 09:01:00,50.0,39.2,29.94,NNE,15,2.0,8.0,66,0.00,,,0.00,WUHU216DAVISVP2,2013-02-19 17:01:00,
2013-02-19 09:06:00,50.0,39.6,29.94,North,351,2.0,7.0,67,0.00,,,0.00,WUHU216DAVISVP2,2013-02-19 17:06:00,
2013-02-19 09:11:00,50.1,39.3,29.93,North,360,3.0,6.0,66,0.00,,,0.00,WUHU216DAVISVP2,2013-02-19 17:11:00,
2013-02-19 09:17:00,50.9,40.1,29.93,NNW,346,3.0,6.0,66,0.00,,,0.00,WUHU216DAVISVP2,2013-02-19 17:17:00,
2013-02-19 09:23:00,50.7,39.5,29.93,NNE,15,2.0,7.0,65,0.00,,,0.00,WUHU216DAVISVP2,2013-02-19 17:23:00,
2013-02-19 09:29:00,50.5,39.7,29.93,ENE,60,4.0,6.0,66,0.00,,,0.00,WUHU216DAVISVP2,2013-02-19 17:29:00,
2013-02-19 09:34:00,50.8,40.0,29.93,NNW,346,1.0,4.0,66,0.00,,,0.00,WUHU216DAVISVP2,2013-02-19 17:34:00,
2013-02-19 09:39:00,51.3,40.0,29.93,ENE,64,3.0,4.0,65,0.00,,,0.00,WUHU216DAVISVP2,2013-02-19 17:39:00,
2013-02-19 09:44:00,51.5,40.2,29.92,ENE,64,0.0,4.0,65,0.00,,,0.00,WUHU216DAVISVP2,2013-02-19 17:44:00,
2013-02-19 09:49:00,51.3,39.6,29.92,ENE,64,1.0,4.0,64,0.00,,,0.00,WUHU216DAVISVP2,2013-02-19 17:49:00,
2013-02-19 09:54:00,50.7,39.5,29.93,ENE,64,0.0,4.0,65,0.00,,,0.00,WUHU216DAVISVP2,2013-02-19 17:54:00,
2013-02-19 09:59:00,50.2,39.4,29.93,ENE,64,0.0,2.0,66,0.00,,,0.00,WUHU216DAVISVP2,2013-02-19 17:59:00,
2013-02-19 10:04:00,50.2,39.4,29.93,ENE,64,0.0,2.0,66,0.00,,,0.00,WUHU216DAVISVP2,2013-02-19 18:04:00,
2013-02-19 10:09:00,50.6,39.8,29.92,ENE,64,0.0,4.0,66,0.00,,,0.00,WUHU216DAVISVP2,2013-02-19 18:09:00,
2013-02-19 10:14:00,50.9,39.7,29.92,ENE,64,0.0,4.0,65,0.00,,,0.00,WUHU216DAVISVP2,2013-02-19 18:14:00,
2013-02-19 10:19:00,50.6,39.4,29.92,ENE,64,0.0,2.0,65,0.00,,,0.00,WUHU216DAVISVP2,2013-02-19 18:19:00,
2013-02-19 10:24:00,50.5,39.3,29.92,ENE,64,0.0,4.0,65,0.00,,,0.00,WUHU216DAVISVP2,2013-02-19 18:24:00,
2013-02-19 10:29:00,50.3,39.1,29.92,NW,323,4.0,4.0,65,0.00,,,0.00,WUHU216DAVISVP2,2013-02-19 18:29:00,
2013-02-19 10:34:00,50.4,39.2,29.92,North,355,0.0,4.0,65,0.00,,,0.00,WUHU216DAVISVP2,2013-02-19 18:34:00,
2013-02-19 10:39:00,50.5,39.3,29.92,North,355,0.0,4.0,65,0.00,,,0.00,WUHU216DAVISVP2,2013-02-19 18:39:00,
2013-02-19 10:44:00,51.0,39.8,29.92,North,355,0.0,2.0,65,0.00,,,0.00,WUHU216DAVISVP2,2013-02-19 18:44:00,
2013-02-19 10:49:00,50.8,39.2,29.92,NNE,26,0.0,2.0,64,0.00,,,0.00,WUHU216DAVISVP2,2013-02-19 18:49:00,
2013-02-19 10:54:00,51.2,39.6,29.91,NNE,30,0.0,2.0,64,0.00,,,0.00,WUHU216DAVISVP2,2013-02-19 18:54:00,
2013-02-19 10:59:00,52.2,40.1,29.91,ENE,74,0.0,3.0,63,0.00,,,0.00,WUHU216DAVISVP2,2013-02-19 18:59:00,
2013-02-19 11:04:00,51.7,39.6,29.91,ENE,74,0.0,3.0,63,0.00,,,0.00,WUHU216DAVISVP2,2013-02-19 19:04:00,
2013-02-19 11:09:00,52.1,39.6,29.90,ENE,74,0.0,3.0,62,0.00,,,0.00,WUHU216DAVISVP2,2013-02-19 19:09:00,
2013-02-19 11:14:00,51.7,38.8,29.90,ENE,74,0.0,3.0,61,0.00,,,0.00,WUHU216DAVISVP2,2013-02-19 19:14:00,
2013-02-19 11:19:00,51.9,40.2,29.90,SSE,151,0.0,5.0,64,0.00,,,0.00,WUHU216DAVISVP2,2013-02-19 19:19:00,
2013-02-19 11:24:00,52.3,40.2,29.90,ESE,121,4.0,6.0,63,0.00,,,0.00,WUHU216DAVISVP2,2013-02-19 19:24:00,
2013-02-19 11:31:00,52.9,40.3,29.89,SSE,151,1.0,7.0,62,0.00,,,0.00,WUHU216DAVISVP2,2013-02-19 19:31:00,
2013-02-19 11:36:00,53.1,40.5,29.89,SE,134,6.0,7.0,62,0.00,,,0.00,WUHU216DAVISVP2,2013-02-19 19:36:00,
2013-02-19 11:41:00,53.1,40.1,29.88,East,86,2.0,7.0,61,0.00,,,0.00,WUHU216DAVISVP2,2013-02-19 19:41:00,
2013-02-19 11:46:00,52.8,40.2,29.88,ESE,123,4.0,7.0,62,0.00,,,0.00,WUHU216DAVISVP2,2013-02-19 19:46:00,
2013-02-19 11:51:00,52.3,39.8,29.88,ENE,78,2.0,6.0,62,0.00,,,0.00,WUHU216DAVISVP2,2013-02-19 19:51:00,
2013-02-19 11:56:00,51.9,39.4,29.88,ENE,59,0.0,4.0,62,0.00,,,0.00,WUHU216DAVISVP2,2013-02-19 19:56:00,
2013-02-19 12:01:00,51.8,40.1,29.88,NE,37,0.0,5.0,64,0.00,,,0.00,WUHU216DAVISVP2,2013-02-19 20:01:00,
2013-02-19 12:06:00,52.2,40.5,29.87,ESE,106,0.0,5.0,64,0.00,,,0.00,WUHU216DAVISVP2,2013-02-19 20:06:00,
2013-02-19 12:11:00,52.5,41.2,29.87,ESE,103,1.0,5.0,65,0.00,,,0.00,WUHU216DAVISVP2,2013-02-19 20:11:00,
2013-02-19 12:16:00,53.9,41.3,29.86,SSE,149,6.0,6.0,62,0.00,,,0.00,WUHU216DAVISVP2,2013-02-19 20:16:00,
2013-02-19 12:21:00,54.5,40.1,29.86,SE,132,0.0,9.0,58,0.00,,,0.00,WUHU216DAVISVP2,2013-02-19 20:21:00,
2013-02-19 12:26:00,53.8,39.9,29.86,SSE,161,2.0,9.0,59,0.00,,,0.00,WUHU216DAVISVP2,2013-02-19 20:26:00,
2013-02-19 12:31:00,53.5,40.1,29.85,South,180,2.0,6.0,60,0.00,,,0.00,WUHU216DAVISVP2,2013-02-19 20:31:00,
2013-02-19 12:36:00,53.6,40.2,29.85,SSE,162,2.0,6.0,60,0.00,,,0.00,WUHU216DAVISVP2,2013-02-19 20:36:00,
2013-02-19 12:41:00,53.6,40.2,29.85,SSW,202,2.0,7.0,60,0.00,,,0.00,WUHU216DAVISVP2,2013-02-19 20:41:00,
2013-02-19 12:46:00,54.3,39.5,29.84,SSE,147,1.0,11.0,57,0.00,,,0.00,WUHU216DAVISVP2,2013-02-19 20:46:00,
2013-02-19 12:51:00,53.7,39.4,29.84,South,184,3.0,11.0,58,0.00,,,0.00,WUHU216DAVISVP2,2013-02-19 20:51:00,
2013-02-19 12:56:00,53.9,39.5,29.84,ESE,121,4.0,9.0,58,0.00,,,0.00,WUHU216DAVISVP2,2013-02-19 20:56:00,
2013-02-19 13:01:00,54.2,39.8,29.83,SE,141,0.0,11.0,58,0.00,,,0.00,WUHU216DAVISVP2,2013-02-19 21:01:00,
2013-02-19 13:06:00,53.8,39.0,29.83,SSE,149,5.0,11.0,57,0.00,,,0.00,WUHU216DAVISVP2,2013-02-19 21:06:00,
2013-02-19 13:11:00,53.8,39.0,29.83,SSW,199,5.0,9.0,57,0.00,,,0.00,WUHU216DAVISVP2,2013-02-19 21:11:00,
2013-02-19 13:16:00,53.9,39.5,29.82,SSE,152,2.0,9.0,58,0.00,,,0.00,WUHU216DAVISVP2,2013-02-19 21:16:00,
2013-02-19 13:21:00,53.5,38.7,29.82,SE,141,2.0,8.0,57,0.00,,,0.00,WUHU216DAVISVP2,2013-02-19 21:21:00,
2013-02-19 13:25:00,54.0,38.7,29.82,ESE,121,6.0,8.0,56,0.00,,,0.00,WUHU216DAVISVP2,2013-02-19 21:25:00,
2013-02-19 13:31:00,54.3,39.9,29.81,SE,138,4.0,8.0,58,0.00,,,0.00,WUHU216DAVISVP2,2013-02-19 21:31:00,
2013-02-19 13:36:00,54.3,39.5,29.81,ESE,109,1.0,8.0,57,0.00,,,0.00,WUHU216DAVISVP2,2013-02-19 21:36:00,
2013-02-19 13:41:00,54.1,39.7,29.81,ESE,123,5.0,9.0,58,0.00,,,0.00,WUHU216DAVISVP2,2013-02-19 21:41:00,
2013-02-19 13:46:00,54.0,41.0,29.81,ESE,119,5.0,10.0,61,0.00,,,0.00,WUHU216DAVISVP2,2013-02-19 21:46:00,
2013-02-19 13:51:00,53.9,39.5,29.81,SE,131,1.0,10.0,58,0.00,,,0.00,WUHU216DAVISVP2,2013-02-19 21:51:00,
2013-02-19 13:56:00,53.8,39.5,29.80,SSE,148,4.0,9.0,58,0.00,,,0.00,WUHU216DAVISVP2,2013-02-19 21:56:00,
2013-02-19 14:00:00,54.1,40.1,29.80,ESE,113,4.0,9.0,59,0.00,,,0.00,WUHU216DAVISVP2,2013-02-19 22:00:00,
2013-02-19 14:05:00,53.8,39.4,29.80,SSE,158,5.0,9.0,58,0.00,,,0.00,WUHU216DAVISVP2,2013-02-19 22:05:00,
2013-02-19 14:10:00,53.9,39.0,29.80,SE,135,3.0,10.0,57,0.00,,,0.00,WUHU216DAVISVP2,2013-02-19 22:10:00,
2013-02-19 14:15:00,53.9,38.6,29.80,SE,135,5.0,10.0,56,0.00,,,0.00,WUHU216DAVISVP2,2013-02-19 22:15:00,
2013-02-19 14:20:00,54.0,39.1,29.80,ESE,113,5.0,11.0,57,0.00,,,0.00,WUHU216DAVISVP2,2013-02-19 22:20:00,
2013-02-19 14:25:00,54.5,39.6,29.79,SE,135,3.0,11.0,57,0.00,,,0.00,WUHU216DAVISVP2,2013-02-19 22:25:00,
2013-02-19 14:30:00,54.8,39.4,29.79,SE,135,5.0,12.0,56,0.00,,,0.00,WUHU216DAVISVP2,2013-02-19 22:30:00,
2013-02-19 14:35:00,54.8,39.8,29.78,SE,135,7.0,12.0,57,0.00,,,0.00,WUHU216DAVISVP2,2013-02-19 22:35:00,
2013-02-19 14:40:00,55.0,39.1,29.78,ESE,113,5.0,12.0,55,0.00,,,0.00,WUHU216DAVISVP2,2013-02-19 22:40:00,
2013-02-19 14:45:00,55.2,38.8,29.77,SE,135,5.0,12.0,54,0.00,,,0.00,WUHU216DAVISVP2,2013-02-19 22:45:00,
2013-02-19 14:50:00,54.9,38.6,29.78,ESE,113,7.0,12.0,54,0.00,,,0.00,WUHU216DAVISVP2,2013-02-19 22:50:00,
2013-02-19 14:55:00,54.6,38.3,29.77,SE,135,7.0,12.0,54,0.00,,,0.00,WUHU216DAVISVP2,2013-02-19 22:55:00,
2013-02-19 15:00:00,54.2,37.9,29.77,SE,135,7.0,12.0,54,0.00,,,0.00,WUHU216DAVISVP2,2013-02-19 23:00:00,
2013-02-19 15:05:00,54.3,38.5,29.76,ESE,113,7.0,12.0,55,0.00,,,0.00,WUHU216DAVISVP2,2013-02-19 23:05:00,
2013-02-19 15:10:00,54.3,38.9,29.75,ESE,113,6.0,14.0,56,0.00,,,0.00,WUHU216DAVISVP2,2013-02-19 23:10:00,
2013-02-19 15:15:00,54.2,38.8,29.75,ESE,113,6.0,14.0,56,0.00,,,0.00,WUHU216DAVISVP2,2013-02-19 23:15:00,
2013-02-19 15:20:00,54.3,39.4,29.75,SE,135,8.0,15.0,57,0.00,,,0.00,WUHU216DAVISVP2,2013-02-19 23:20:00,
2013-02-19 15:25:00,54.2,39.3,29.75,SE,135,7.0,15.0,57,0.00,,,0.00,WUHU216DAVISVP2,2013-02-19 23:25:00,
2013-02-19 15:30:00,54.0,38.6,29.75,SE,135,6.0,15.0,56,0.00,,,0.00,WUHU216DAVISVP2,2013-02-19 23:30:00,
2013-02-19 15:35:00,53.7,38.8,29.74,SE,135,6.0,13.0,57,0.00,,,0.00,WUHU216DAVISVP2,2013-02-19 23:35:00,
2013-02-19 15:40:00,53.6,39.6,29.74,ESE,113,6.0,16.0,59,0.00,,,0.00,WUHU216DAVISVP2,2013-02-19 23:40:00,
2013-02-19 15:45:00,53.3,40.2,29.74,ESE,113,5.0,16.0,61,0.00,,,0.00,WUHU216DAVISVP2,2013-02-19 23:45:00,
2013-02-19 15:50:00,53.2,40.5,29.74,SE,135,4.0,16.0,62,0.00,,,0.00,WUHU216DAVISVP2,2013-02-19 23:50:00,
2013-02-19 15:55:00,53.0,41.5,29.74,SE,135,3.0,11.0,65,0.00,,,0.00,WUHU216DAVISVP2,2013-02-19 23:55:00,
2013-02-19 16:00:00,52.7,41.7,29.74,SSE,158,5.0,11.0,66,0.00,,,0.00,WUHU216DAVISVP2,2013-02-20 00:00:00,
2013-02-19 16:05:00,52.4,42.1,29.73,SE,135,3.0,10.0,68,0.00,,,0.00,WUHU216DAVISVP2,2013-02-20 00:05:00,
2013-02-19 16:10:00,52.1,41.9,29.73,SSE,158,4.0,10.0,68,0.00,,,0.00,WUHU216DAVISVP2,2013-02-20 00:10:00,
2013-02-19 16:15:00,51.8,41.6,29.73,South,180,6.0,12.0,68,0.00,,,0.00,WUHU216DAVISVP2,2013-02-20 00:15:00,
2013-02-19 16:20:00,51.2,41.7,29.73,SW,225,5.0,12.0,70,0.00,,,0.00,WUHU216DAVISVP2,2013-02-20 00:20:00,
2013-02-19 16:25:00,50.3,42.3,29.73,SSW,203,6.0,13.0,74,0.00,,,0.00,WUHU216DAVISVP2,2013-02-20 00:25:00,
2013-02-19 16:30:00,49.6,42.7,29.73,SSW,203,5.0,13.0,77,0.00,,,0.00,WUHU216DAVISVP2,2013-02-20 00:30:00,
2013-02-19 16:35:00,49.4,42.8,29.72,SSW,203,6.0,14.0,78,0.01,,,0.01,WUHU216DAVISVP2,2013-02-20 00:35:00,
2013-02-19 16:40:00,49.3,43.1,29.73,South,180,7.0,14.0,79,0.01,,,0.01,WUHU216DAVISVP2,2013-02-20 00:40:00,
2013-02-19 16:45:00,49.2,43.6,29.72,SSW,203,6.0,14.0,81,0.01,,,0.01,WUHU216DAVISVP2,2013-02-20 00:45:00,
2013-02-19 16:50:00,49.0,43.7,29.72,South,180,6.0,12.0,82,0.02,,,0.02,WUHU216DAVISVP2,2013-02-20 00:50:00,
2013-02-19 16:55:00,48.8,43.9,29.72,SSW,203,5.0,12.0,83,0.02,,,0.02,WUHU216DAVISVP2,2013-02-20 00:55:00,
2013-02-19 17:00:00,48.6,44.0,29.73,SW,225,6.0,12.0,84,0.03,,,0.03,WUHU216DAVISVP2,2013-02-20 01:00:00,
2013-02-19 17:05:00,46.7,40.9,29.74,WNW,293,10.0,19.0,80,0.03,,,0.03,WUHU216DAVISVP2,2013-02-20 01:05:00,
2013-02-19 17:10:00,43.9,39.4,29.74,WNW,293,11.0,19.0,84,0.09,,,0.09,WUHU216DAVISVP2,2013-02-20 01:10:00,
2013-02-19 17:15:00,43.1,39.5,29.74,WNW,293,11.0,19.0,87,0.13,,,0.13,WUHU216DAVISVP2,2013-02-20 01:15:00,
2013-02-19 17:20:00,42.7,39.7,29.74,WNW,293,9.0,19.0,89,0.15,,,0.15,WUHU216DAVISVP2,2013-02-20 01:20:00,
2013-02-19 17:25:00,42.5,39.8,29.74,WNW,293,7.0,19.0,90,0.17,,,0.17,WUHU216DAVISVP2,2013-02-20 01:25:00,
2013-02-19 17:30:00,42.5,39.8,29.75,WNW,293,7.0,18.0,90,0.17,,,0.18,WUHU216DAVISVP2,2013-02-20 01:30:00,
2013-02-19 17:35:00,42.5,40.1,29.75,WNW,293,7.0,15.0,91,0.17,,,0.18,WUHU216DAVISVP2,2013-02-20 01:35:00,
2013-02-19 17:40:00,42.1,39.7,29.75,NW,315,9.0,17.0,91,0.18,,,0.19,WUHU216DAVISVP2,2013-02-20 01:40:00,
2013-02-19 17:45:00,41.7,39.0,29.75,WNW,293,10.0,19.0,90,0.18,,,0.20,WUHU216DAVISVP2,2013-02-20 01:45:00,
2013-02-19 17:55:00,41.4,38.6,29.75,WNW,298,13.0,13.0,90,0.17,,,0.20,WUHU216DAVISVP2,2013-02-20 01:55:00,
2013-02-19 18:00:00,41.4,38.6,29.75,NW,314,4.0,16.0,90,0.11,,,0.20,WUHU216DAVISVP2,2013-02-20 02:00:00,
2013-02-19 18:05:00,41.3,38.5,29.75,WNW,302,7.0,16.0,90,0.07,,,0.20,WUHU216DAVISVP2,2013-02-20 02:05:00,
2013-02-19 18:10:00,41.2,38.5,29.75,NW,306,5.0,12.0,90,0.05,,,0.20,WUHU216DAVISVP2,2013-02-20 02:10:00,
2013-02-19 18:15:00,41.2,38.7,29.75,NW,323,5.0,12.0,91,0.04,,,0.21,WUHU216DAVISVP2,2013-02-20 02:15:00,
2013-02-19 18:20:00,41.2,38.7,29.75,NW,321,9.0,12.0,91,0.04,,,0.22,WUHU216DAVISVP2,2013-02-20 02:20:00,
2013-02-19 18:25:00,41.2,38.7,29.75,North,350,10.0,11.0,91,0.04,,,0.22,WUHU216DAVISVP2,2013-02-20 02:25:00,
2013-02-19 18:30:00,41.2,38.7,29.74,North,11,7.0,10.0,91,0.04,,,0.23,WUHU216DAVISVP2,2013-02-20 02:30:00,
2013-02-19 18:35:00,41.0,38.6,29.74,North,355,8.0,12.0,91,0.03,,,0.23,WUHU216DAVISVP2,2013-02-20 02:35:00,
2013-02-19 18:40:00,40.7,38.3,29.75,North,355,7.0,12.0,91,0.04,,,0.24,WUHU216DAVISVP2,2013-02-20 02:40:00,
2013-02-19 18:45:00,40.6,38.4,29.75,NNW,333,6.0,11.0,92,0.04,,,0.24,WUHU216DAVISVP2,2013-02-20 02:45:00,
2013-02-19 18:50:00,40.5,38.3,29.75,North,5,4.0,9.0,92,0.04,,,0.24,WUHU216DAVISVP2,2013-02-20 02:50:00,
2013-02-19 18:55:00,40.5,38.3,29.75,NNW,336,7.0,9.0,92,0.04,,,0.24,WUHU216DAVISVP2,2013-02-20 02:55:00,
2013-02-19 19:00:00,40.6,38.4,29.75,NW,323,4.0,9.0,92,0.04,,,0.24,WUHU216DAVISVP2,2013-02-20 03:00:00,
2013-02-19 19:05:00,40.6,38.7,29.75,NNW,338,0.0,9.0,93,0.04,,,0.24,WUHU216DAVISVP2,2013-02-20 03:05:00,
2013-02-19 19:10:00,40.7,38.8,29.75,North,5,4.0,7.0,93,0.04,,,0.24,WUHU216DAVISVP2,2013-02-20 03:10:00,
2013-02-19 19:15:00,40.7,38.8,29.75,NNW,346,5.0,8.0,93,0.03,,,0.24,WUHU216DAVISVP2,2013-02-20 03:15:00,
2013-02-19 19:20:00,40.7,38.8,29.75,NW,325,5.0,8.0,93,0.02,,,0.24,WUHU216DAVISVP2,2013-02-20 03:20:00,
2013-02-19 19:25:00,40.7,38.8,29.75,North,351,3.0,8.0,93,0.02,,,0.24,WUHU216DAVISVP2,2013-02-20 03:25:00,
2013-02-19 19:30:00,40.7,38.8,29.75,North,355,5.0,7.0,93,0.01,,,0.24,WUHU216DAVISVP2,2013-02-20 03:30:00,
2013-02-19 19:39:00,40.7,38.8,29.75,North,355,3.0,6.0,93,0.00,,,0.24,WUHU216DAVISVP2,2013-02-20 03:39:00,
2013-02-19 19:44:00,40.6,38.7,29.75,North,9,3.0,8.0,93,0.00,,,0.24,WUHU216DAVISVP2,2013-02-20 03:44:00,
2013-02-19 19:49:00,40.7,38.8,29.76,NNW,331,2.0,8.0,93,0.00,,,0.24,WUHU216DAVISVP2,2013-02-20 03:49:00,
2013-02-19 19:54:00,40.7,38.8,29.75,North,351,3.0,7.0,93,0.00,,,0.24,WUHU216DAVISVP2,2013-02-20 03:54:00,
2013-02-19 19:59:00,40.7,38.8,29.76,NNW,334,4.0,7.0,93,0.01,,,0.25,WUHU216DAVISVP2,2013-02-20 03:59:00,
2013-02-19 20:04:00,40.7,38.8,29.75,NW,326,3.0,7.0,93,0.01,,,0.25,WUHU216DAVISVP2,2013-02-20 04:04:00,
2013-02-19 20:09:00,40.6,38.7,29.75,NW,319,0.0,6.0,93,0.01,,,0.25,WUHU216DAVISVP2,2013-02-20 04:09:00,
2013-02-19 20:14:00,40.7,38.8,29.76,NW,321,1.0,6.0,93,0.01,,,0.25,WUHU216DAVISVP2,2013-02-20 04:14:00,
2013-02-19 20:19:00,40.6,38.7,29.76,NNW,340,3.0,6.0,93,0.01,,,0.25,WUHU216DAVISVP2,2013-02-20 04:19:00,
2013-02-19 20:25:00,40.6,38.7,29.76,NW,315,3.0,6.0,93,0.01,,,0.25,WUHU216DAVISVP2,2013-02-20 04:25:00,
2013-02-19 20:30:00,40.6,38.7,29.76,NNW,338,2.0,6.0,93,0.01,,,0.25,WUHU216DAVISVP2,2013-02-20 04:30:00,
2013-02-19 20:35:00,40.6,38.7,29.76,NW,315,2.0,6.0,93,0.01,,,0.25,WUHU216DAVISVP2,2013-02-20 04:35:00,
2013-02-19 20:47:00,40.5,38.6,29.77,NW,315,2.0,5.0,93,0.01,,,0.25,WUHU216DAVISVP2,2013-02-20 04:47:00,
2013-02-19 20:52:00,40.4,38.5,29.76,North,355,2.0,4.0,93,0.01,,,0.25,WUHU216DAVISVP2,2013-02-20 04:52:00,
2013-02-19 20:57:00,40.2,38.3,29.77,NNW,330,3.0,4.0,93,0.00,,,0.25,WUHU216DAVISVP2,2013-02-20 04:57:00,
2013-02-19 21:00:00,40.2,38.3,29.77,NNW,330,3.0,4.0,93,0.00,,,0.25,WUHU216DAVISVP2,2013-02-20 05:00:00,
2013-02-19 21:05:00,40.0,38.1,29.77,NNW,330,0.0,3.0,93,0.00,,,0.25,WUHU216DAVISVP2,2013-02-20 05:05:00,
2013-02-19 21:10:00,40.0,38.1,29.77,NNW,330,0.0,2.0,93,0.00,,,0.25,WUHU216DAVISVP2,2013-02-20 05:10:00,
2013-02-19 21:15:00,39.9,38.0,29.77,NNW,330,1.0,2.0,93,0.00,,,0.25,WUHU216DAVISVP2,2013-02-20 05:15:00,
2013-02-19 21:20:00,39.9,38.0,29.77,NNW,330,0.0,2.0,93,0.00,,,0.25,WUHU216DAVISVP2,2013-02-20 05:20:00,
2013-02-19 21:25:00,39.9,38.0,29.78,NNW,330,2.0,2.0,93,0.00,,,0.25,WUHU216DAVISVP2,2013-02-20 05:25:00,
2013-02-19 21:30:00,40.0,38.1,29.78,NNW,330,0.0,2.0,93,0.00,,,0.25,WUHU216DAVISVP2,2013-02-20 05:30:00,
2013-02-19 21:35:00,40.1,38.5,29.78,NNW,330,0.0,2.0,94,0.00,,,0.25,WUHU216DAVISVP2,2013-02-20 05:35:00,
2013-02-19 21:40:00,40.2,38.6,29.79,NNW,330,0.0,2.0,94,0.00,,,0.25,WUHU216DAVISVP2,2013-02-20 05:40:00,
2013-02-19 21:45:00,40.4,38.8,29.79,NNW,330,2.0,3.0,94,0.00,,,0.25,WUHU216DAVISVP2,2013-02-20 05:45:00,
2013-02-19 21:50:00,40.4,38.8,29.79,WSW,249,0.0,4.0,94,0.00,,,0.25,WUHU216DAVISVP2,2013-02-20 05:50:00,
2013-02-19 21:55:00,40.4,38.8,29.79,WSW,250,1.0,4.0,94,0.00,,,0.25,WUHU216DAVISVP2,2013-02-20 05:55:00,
2013-02-19 22:00:00,40.2,38.6,29.79,WSW,249,0.0,3.0,94,0.00,,,0.25,WUHU216DAVISVP2,2013-02-20 06:00:00,
2013-02-19 22:05:00,40.1,38.2,29.80,WSW,250,0.0,2.0,93,0.00,,,0.25,WUHU216DAVISVP2,2013-02-20 06:05:00,
2013-02-19 22:10:00,40.0,38.1,29.80,WSW,249,0.0,2.0,93,0.00,,,0.25,WUHU216DAVISVP2,2013-02-20 06:10:00,
2013-02-19 22:15:00,39.8,38.2,29.80,WSW,249,1.0,2.0,94,0.00,,,0.25,WUHU216DAVISVP2,2013-02-20 06:15:00,
2013-02-19 22:20:00,39.9,38.3,29.80,WSW,249,0.0,2.0,94,0.00,,,0.25,WUHU216DAVISVP2,2013-02-20 06:20:00,
2013-02-19 22:25:00,39.8,38.2,29.80,WSW,249,0.0,2.0,94,0.00,,,0.25,WUHU216DAVISVP2,2013-02-20 06:25:00,
2013-02-19 22:30:00,39.9,38.3,29.81,WSW,249,0.0,2.0,94,0.00,,,0.25,WUHU216DAVISVP2,2013-02-20 06:30:00,
2013-02-19 22:35:00,40.0,38.4,29.80,WSW,249,0.0,2.0,94,0.00,,,0.25,WUHU216DAVISVP2,2013-02-20 06:35:00,
2013-02-19 22:40:00,40.1,38.5,29.81,WSW,249,2.0,2.0,94,0.00,,,0.25,WUHU216DAVISVP2,2013-02-20 06:40:00,
2013-02-19 22:45:00,40.1,38.5,29.80,WSW,250,0.0,2.0,94,0.00,,,0.25,WUHU216DAVISVP2,2013-02-20 06:45:00,
2013-02-19 22:50:00,40.0,38.4,29.80,WSW,250,0.0,2.0,94,0.00,,,0.25,WUHU216DAVISVP2,2013-02-20 06:50:00,
2013-02-19 22:55:00,40.1,38.5,29.80,WSW,250,0.0,0.0,94,0.00,,,0.25,WUHU216DAVISVP2,2013-02-20 06:55:00,
2013-02-19 23:00:00,39.9,38.0,29.80,WSW,250,0.0,0.0,93,0.00,,,0.25,WUHU216DAVISVP2,2013-02-20 07:00:00,
2013-02-19 23:05:00,39.9,38.3,29.80,WSW,250,0.0,0.0,94,0.00,,,0.25,WUHU216DAVISVP2,2013-02-20 07:05:00,
2013-02-19 23:10:00,39.8,38.2,29.80,WSW,249,0.0,0.0,94,0.00,,,0.25,WUHU216DAVISVP2,2013-02-20 07:10:00,
2013-02-19 23:15:00,39.6,38.0,29.80,WSW,250,0.0,0.0,94,0.00,,,0.25,WUHU216DAVISVP2,2013-02-20 07:15:00,
2013-02-19 23:20:00,39.5,37.9,29.81,WSW,249,0.0,0.0,94,0.00,,,0.25,WUHU216DAVISVP2,2013-02-20 07:20:00,
2013-02-19 23:25:00,39.5,37.9,29.80,WSW,250,0.0,0.0,94,0.00,,,0.25,WUHU216DAVISVP2,2013-02-20 07:25:00,
2013-02-19 23:30:00,39.7,38.4,29.80,WSW,250,0.0,0.0,95,0.00,,,0.25,WUHU216DAVISVP2,2013-02-20 07:30:00,
2013-02-19 23:35:00,39.7,38.4,29.80,WSW,249,0.0,0.0,95,0.00,,,0.25,WUHU216DAVISVP2,2013-02-20 07:35:00,
2013-02-19 23:40:00,39.6,38.3,29.81,WSW,249,0.0,0.0,95,0.00,,,0.25,WUHU216DAVISVP2,2013-02-20 07:40:00,
2013-02-19 23:45:00,39.7,38.3,29.80,WSW,249,0.0,0.0,95,0.00,,,0.25,WUHU216DAVISVP2,2013-02-20 07:45:00,
2013-02-19 23:51:00,39.7,38.3,29.80,WSW,249,0.0,0.0,95,0.00,,,0.25,WUHU216DAVISVP2,2013-02-20 07:51:00,
2013-02-19 23:56:00,39.9,38.5,29.80,WSW,250,0.0,1.0,95,0.00,,,0.25,WUHU216DAVISVP2,2013-02-20 07:56:00,